sat.trackr.live / text

‹ back to catalog

IRIDIUM 165

NORAD 43572 · 2018-061D

PAYLOAD ACTIVE UNKNOWN

§ Identity

Operator
Country
US
Launch date
2018-07-25
Launch site
AFWTR
Launch vehicle
Mass (kg)
RCS (m²)

Purposes: comms

External: N2YO · Heavens-Above · Gunter

§ Orbital elements

Epoch: 2026-09-12T17:00:26.449344Z

Period
100.40 min
Inclination
86.4005°
Eccentricity
0.0002078
Mean motion
14.34217379 rev/d
Perigee alt
776.2 km
Apogee alt
779.2 km
Semi-major
7,155.8 km
B*
1.6545e-5
RAAN
20.1995°
Arg perigee
92.1510°
Mean anomaly
267.9924°
Rev number
42,593

§ Raw data

IRIDIUM 1651 43572U 18061D   26255.70863946  .00000066  00000+0  16545-4 0  99962 43572  86.4005  20.1995 0002078  92.1510 267.9924 14.34217379425930

JSON: /api/v1/satellites/43572 · /tle

For live sub-satellite position, see the globe view (requires WebGL).

§ Visibility from observer

Set your observer location to see the next 7 days of passes ≥ 10°. The values pass through the URL so the page stays shareable.

No JS? Fill the form by hand. The geolocation button needs JavaScript.